This is the latest recevied weather packets stored in our database for station/object OK1HOL-13. If no packets are shown the sender has not sent any weather packets the latest 10 day(s).
| Time | Temp. | Humidity | Pressure | Rain* | Wind** | Luminosity | Snow |
|---|---|---|---|---|---|---|---|
| 1778109964 | 14.44° C | 88% | 1007 hPa | - | - | 0 W/m² | - |
| 1778109364 | 14.44° C | 87% | 1007 hPa | - | - | 0 W/m² | - |
| 1778108764 | 14.44° C | 88% | 1006.9 hPa | - | - | 0 W/m² | - |
| 1778108164 | 14.44° C | 88% | 1007 hPa | - | - | 0 W/m² | - |
| 1778107564 | 14.44° C | 89% | 1007 hPa | - | - | 0 W/m² | - |
| 1778106964 | 14.44° C | 90% | 1006.9 hPa | - | - | 0 W/m² | - |
| 1778106364 | 14.44° C | 88% | 1006.9 hPa | - | - | 0 W/m² | - |
| 1778105764 | 14.44° C | 91% | 1006.8 hPa | - | - | 0 W/m² | - |
| 1778105164 | 14.44° C | 91% | 1006.7 hPa | - | - | 0 W/m² | - |
| 1778104564 | 14.44° C | 91% | 1006.7 hPa | - | - | 0 W/m² | - |
| 1778103964 | 14.44° C | 91% | 1006.7 hPa | - | - | 0 W/m² | - |
| 1778103364 | 14.44° C | 90% | 1006.6 hPa | - | - | 0 W/m² | - |
| 1778102164 | 14.44° C | 89% | 1006.6 hPa | - | - | 0 W/m² | - |
| 1778101564 | 14.44° C | 87% | 1006.7 hPa | - | - | 0 W/m² | - |
| 1778100967 | 14.44° C | 83% | 1006.9 hPa | - | - | 0 W/m² | - |
| 1778100364 | 14.44° C | 83% | 1006.8 hPa | - | - | 0 W/m² | - |
| 1778099764 | 15° C | 85% | 1006.9 hPa | - | - | 0 W/m² | - |
| 1778099164 | 15° C | 83% | 1006.8 hPa | - | - | 0 W/m² | - |
| 1778098564 | 15° C | 82% | 1006 hPa | - | - | 0 W/m² | - |
| 1778097964 | 15.56° C | 80% | 1005.7 hPa | - | - | 0 W/m² | - |
| 1778097364 | 16.11° C | 83% | 1005.3 hPa | - | - | 0 W/m² | - |
| 1778096765 | 16.11° C | 77% | 1005.4 hPa | - | - | 0 W/m² | - |
| 1778096164 | 16.67° C | 77% | 1005.4 hPa | - | - | 0 W/m² | - |
| 1778095565 | 16.67° C | 73% | 1005.2 hPa | - | - | 0 W/m² | - |
| 1778094964 | 16.67° C | 69% | 1005.6 hPa | - | - | 0 W/m² | - |
* Rain since midnight (hover to see other rain measurements)
** Current wind speed in m/s (hover to see current wind gust speed)